Change the Weather History Date:

Tuesday, January 1, 2013

  Actual Average Record
Temperature  
Mean Temperature 46 °F -  
Max Temperature 50 °F 50 °F 75 °F (1952)
Min Temperature 42 °F 31 °F 17 °F (1998)
Degree Days  
Heating Degree Days 19    
Moisture  
Dew Point 44 °F    
Average Humidity 89    
Maximum Humidity 94    
Minimum Humidity 71    
Precipitation  
Precipitation 1.42 in - - ()
Sea Level Pressure  
Sea Level Pressure 30.03 in    
Wind  
Wind Speed 2 mph (NNE)    
Max Wind Speed 16 mph    
Max Gust Speed 26 mph    
Visibility 7 miles    
Events      
Averages and records for this station are not official NWS values.
T = Trace of Precipitation, MM = Missing Value Source: NWS Daily Summary

Daily Weather History Graph

Daily Weather History Graph

Search for Another Location

Airport or City:

Trip Planner

Search our weather history database for the weather conditions in past years. The results will help you decide how hot, cold, wet, or windy it might be!

Date:

Astronomy

Jan. 01, 2013 Rise Set
Actual Time 6:49 AM CST 4:46 PM CST
Civil Twilight 6:22 AM CST 5:14 PM CST
Nautical Twilight 5:51 AM CST 5:45 PM CST
Astronomical Twilight 5:20 AM CST 6:15 PM CST
Moon 9:03 PM CST (1/1) 9:13 AM CST (1/1)
Length of Visible Light 10h 51m
Length of Day
9h 56m
Waning Gibbous, 83% of the Moon is Illuminated
Jan 1
Waning Gibbous
Jan 4
Last Quarter
Jan 11
New
Jan 18
First Quarter
Jan 26
Full

Hourly Weather History & Observations

Time (CST) Temp. Windchill Dew Point Humidity Pressure Visibility Wind Dir Wind Speed Gust Speed Precip Events Conditions
12:15 AM 42.8 °F - 37.4 °F 81% 30.09 in 10.0 mi Calm Calm - N/A   Clear
12:35 AM 42.8 °F - 37.4 °F 81% 30.10 in 10.0 mi Calm Calm - N/A   Partly Cloudy
12:55 AM 44.6 °F - 35.6 °F 71% 30.08 in 10.0 mi Calm Calm - N/A   Mostly Cloudy
1:15 AM 44.6 °F 43.1 °F 37.4 °F 76% 30.07 in 10.0 mi SSW 3.5 mph - N/A   Overcast
1:35 AM 46.4 °F - 37.4 °F 71% 30.07 in 10.0 mi Calm Calm - N/A   Overcast
1:55 AM 44.6 °F - 39.2 °F 81% 30.06 in 10.0 mi Calm Calm - N/A   Overcast
2:15 AM 44.6 °F - 39.2 °F 81% 30.06 in 10.0 mi Calm Calm - N/A   Overcast
2:35 AM 44.6 °F - 37.4 °F 76% 30.06 in 10.0 mi Calm Calm - N/A   Overcast
3:15 AM 46.4 °F - 37.4 °F 71% 30.06 in 10.0 mi Calm Calm - N/A   Overcast
3:35 AM 46.4 °F - 39.2 °F 76% 30.05 in 10.0 mi Calm Calm - N/A   Overcast
4:15 AM 46.4 °F - 39.2 °F 76% 30.04 in 10.0 mi Calm Calm - N/A   Overcast
4:35 AM 46.4 °F - 39.2 °F 76% 30.04 in 10.0 mi Calm Calm - N/A   Overcast
4:55 AM 46.4 °F - 39.2 °F 76% 30.05 in 10.0 mi Calm Calm - N/A   Overcast
5:15 AM 46.4 °F 43.5 °F 39.2 °F 76% 30.05 in 10.0 mi North 5.8 mph - N/A   Overcast
5:35 AM 46.4 °F - 41.0 °F 81% 30.06 in 4.0 mi Calm Calm - 0.02 in   Mostly Cloudy
5:55 AM 44.6 °F 43.1 °F 42.8 °F 93% 30.07 in 4.0 mi SE 3.5 mph - 0.05 in   Mostly Cloudy
6:15 AM 44.6 °F - 42.8 °F 93% 30.09 in 3.0 mi Calm Calm - 0.01 in   Overcast
6:35 AM 44.6 °F - 42.8 °F 93% 30.09 in 2.5 mi Calm Calm - 0.04 in   Mostly Cloudy
6:55 AM 46.4 °F 42.9 °F 44.6 °F 93% 30.07 in 2.5 mi SE 6.9 mph - 0.07 in   Overcast
7:15 AM 46.4 °F 44.3 °F 42.8 °F 87% 30.06 in 2.5 mi SE 4.6 mph - 0.07 in   Mostly Cloudy
7:35 AM 46.4 °F - 44.6 °F 93% 30.06 in 2.0 mi Calm Calm - 0.15 in   Overcast
7:55 AM 46.4 °F 45.2 °F 44.6 °F 93% 30.05 in 1.8 mi NE 3.5 mph - 0.23 in   Scattered Clouds
8:15 AM 46.4 °F 45.2 °F 44.6 °F 93% 30.06 in 2.5 mi NE 3.5 mph - 0.09 in   Partly Cloudy
8:35 AM 46.4 °F 45.2 °F 44.6 °F 93% 30.06 in 3.0 mi ENE 3.5 mph - 0.15 in   Clear
9:15 AM 46.4 °F - 44.6 °F 93% 30.07 in 5.0 mi Calm Calm - 0.03 in   Clear
9:35 AM 46.4 °F 45.2 °F 44.6 °F 93% 30.06 in 5.0 mi East 3.5 mph - 0.06 in   Mostly Cloudy
9:55 AM 46.4 °F - 44.6 °F 93% 30.07 in 3.0 mi Calm Calm - 0.10 in   Overcast
10:15 AM 46.4 °F 44.3 °F 44.6 °F 93% 30.06 in 5.0 mi ENE 4.6 mph - 0.01 in   Overcast
10:35 AM 46.4 °F 45.2 °F 44.6 °F 93% 30.06 in 3.0 mi ENE 3.5 mph - 0.04 in   Overcast
11:15 AM 48.2 °F - 46.4 °F 93% 30.04 in 2.5 mi Calm Calm - 0.03 in   Clear
11:35 AM 48.2 °F - 46.4 °F 93% 30.03 in 3.0 mi Calm Calm - 0.07 in   Clear
11:55 AM 48.2 °F - 46.4 °F 93% 30.03 in 3.0 mi Calm Calm - 0.11 in   Clear
12:15 PM 48.2 °F - 46.4 °F 93% 30.02 in 4.0 mi Calm Calm - 0.03 in   Clear
12:35 PM 48.2 °F - 46.4 °F 93% 30.01 in 4.0 mi Calm Calm - 0.06 in   Clear
12:55 PM 48.2 °F - 46.4 °F 93% 29.99 in 5.0 mi East 4.6 mph - 0.08 in   Scattered Clouds
1:15 PM 48.2 °F - 46.4 °F 93% 29.99 in 5.0 mi East 4.6 mph - 0.03 in   Overcast
1:35 PM 48.2 °F - 46.4 °F 93% 29.99 in 7.0 mi Calm Calm - 0.06 in   Overcast
1:55 PM 48.2 °F - 46.4 °F 93% 29.98 in 10.0 mi ENE 5.8 mph - 0.09 in   Overcast
2:15 PM 48.2 °F - 46.4 °F 93% 29.98 in 9.0 mi East 3.5 mph - 0.03 in   Overcast
2:35 PM 48.2 °F - 46.4 °F 93% 29.97 in 7.0 mi ENE 4.6 mph - 0.05 in   Overcast
2:55 PM 48.2 °F - 46.4 °F 93% 29.97 in 9.0 mi ENE 3.5 mph - 0.07 in   Overcast
3:15 PM 48.2 °F - 46.4 °F 93% 29.97 in 6.0 mi ENE 4.6 mph - 0.04 in   Scattered Clouds
3:35 PM 48.2 °F - 46.4 °F 93% 29.97 in 10.0 mi NE 3.5 mph - 0.07 in   Clear
4:15 PM 48.2 °F - 46.4 °F 93% 29.97 in 8.0 mi Calm Calm - 0.03 in   Clear
4:35 PM 48.2 °F - 46.4 °F 93% 29.97 in 10.0 mi Calm Calm - 0.04 in   Partly Cloudy
4:55 PM 48.2 °F - 46.4 °F 93% 29.97 in 5.0 mi Calm Calm - 0.05 in   Clear
5:15 PM 48.2 °F - 46.4 °F 93% 29.98 in 7.0 mi Calm Calm - 0.03 in   Clear
5:35 PM 48.2 °F - 46.4 °F 93% 29.98 in 6.0 mi Calm Calm - 0.06 in   Scattered Clouds
5:55 PM 48.2 °F - 46.4 °F 93% 29.98 in 8.0 mi Calm Calm - 0.07 in   Scattered Clouds
6:15 PM 50.0 °F - 48.2 °F 94% 29.99 in 10.0 mi Calm Calm - 0.01 in   Clear
6:35 PM 50.0 °F - 48.2 °F 94% 30.00 in 8.0 mi Calm Calm - 0.05 in   Scattered Clouds
6:55 PM 50.0 °F - 48.2 °F 94% 30.01 in 3.0 mi Calm Calm - 0.07 in   Overcast
7:15 PM 50.0 °F - 48.2 °F 94% 30.01 in 5.0 mi NNW 3.5 mph - 0.01 in   Overcast
7:35 PM 50.0 °F - 48.2 °F 94% 30.01 in 9.0 mi NNW 4.6 mph - 0.01 in   Overcast
7:55 PM 50.0 °F - 48.2 °F 94% 30.01 in 10.0 mi NNW 6.9 mph - 0.03 in   Mostly Cloudy
8:15 PM 50.0 °F - 46.4 °F 87% 30.02 in 10.0 mi NNW 4.6 mph - 0.01 in   Clear
8:35 PM 50.0 °F - 46.4 °F 87% 30.02 in 10.0 mi NNW 3.5 mph - 0.03 in   Partly Cloudy
8:55 PM 50.0 °F - 46.4 °F 87% 30.02 in 10.0 mi NNW 4.6 mph - 0.05 in   Mostly Cloudy
9:15 PM 48.2 °F - 46.4 °F 93% 30.02 in 8.0 mi Calm Calm - 0.04 in   Scattered Clouds
9:35 PM 48.2 °F - 46.4 °F 93% 30.01 in 10.0 mi Calm Calm - 0.06 in   Clear
9:55 PM 48.2 °F - 46.4 °F 93% 30.03 in 10.0 mi NW 4.6 mph - 0.08 in   Clear
10:15 PM 48.2 °F - 46.4 °F 93% 30.02 in 10.0 mi NNW 3.5 mph - 0.01 in   Clear
10:35 PM 48.2 °F - 46.4 °F 93% 30.02 in 10.0 mi Calm Calm - 0.01 in   Mostly Cloudy
10:55 PM 48.2 °F - 46.4 °F 93% 30.02 in 10.0 mi NW 3.5 mph - 0.01 in   Mostly Cloudy
11:15 PM 48.2 °F - 46.4 °F 93% 30.03 in 10.0 mi NW 6.9 mph - N/A   Overcast
11:35 PM 46.4 °F 39.8 °F 44.6 °F 93% 30.05 in 10.0 mi NNW 16.1 mph 26.5 mph N/A   Overcast
11:55 PM 44.6 °F 38.8 °F 41.0 °F 87% 30.05 in 10.0 mi NNW 11.5 mph 18.4 mph N/A   Overcast